| time (UTC) | temp F | wind direction | speed knots | gust knots | rain 1hr in | rain 24hr in | rain mn in | humidity % | barometer mb |
| 20260510030813 | 67 | 319 | 3.5 | 10.4 | 0.00 | 0.00 | 0.00 | 14 | 1023.7 |
| 20260510030311 | 67 | 336 | 3.5 | 7.0 | 0.00 | 0.00 | 0.00 | 14 | 1023.4 |
| 20260510025810 | 67 | 327 | 2.6 | 7.0 | 0.00 | 0.00 | 0.00 | 13 | 1023.4 |
| 20260510025541 | 68 | 5 | 2.6 | 7.0 | 0.00 | 0.00 | 0.00 | 13 | 1023.3 |
| 20260510024810 | 68 | 331 | 3.5 | 8.7 | 0.00 | 0.00 | 0.00 | 13 | 1023.2 |
| 20260510024312 | 68 | 340 | 4.3 | 8.7 | 0.00 | 0.00 | 0.00 | 13 | 1023.0 |
| 20260510023810 | 68 | 333 | 4.3 | 10.4 | 0.00 | 0.00 | 0.00 | 13 | 1023.0 |
| 20260510023310 | 69 | 287 | 3.5 | 10.4 | 0.00 | 0.00 | 0.00 | 13 | 1023.0 |
| 20260510022810 | 69 | 5 | 3.5 | 8.7 | 0.00 | 0.00 | 0.00 | 14 | 1022.9 |
| 20260510022530 | 69 | 298 | 4.3 | 10.4 | 0.00 | 0.00 | 0.00 | 13 | 1022.9 |
| 20260510021811 | 69 | 317 | 5.2 | 10.4 | 0.00 | 0.00 | 0.00 | 13 | 1022.8 |
| 20260510021306 | 69 | 9 | 6.1 | 15.6 | 0.00 | 0.00 | 0.00 | 13 | 1022.6 |
| 20260510020759 | 70 | 208 | 6.1 | 15.6 | 0.00 | 0.00 | 0.00 | 13 | 1022.6 |
| 20260510020254 | 70 | 290 | 5.2 | 13.0 | 0.00 | 0.00 | 0.00 | 13 | 1022.6 |
| 20260510015748 | 71 | 298 | 5.2 | 13.0 | 0.00 | 0.00 | 0.00 | 13 | 1022.6 |
| 20260510015242 | 71 | 269 | 6.1 | 13.0 | 0.00 | 0.00 | 0.00 | 12 | 1022.5 |
| 20260510014735 | 71 | 284 | 5.2 | 13.0 | 0.00 | 0.00 | 0.00 | 12 | 1022.4 |
| 20260510014230 | 72 | 307 | 5.2 | 12.2 | 0.00 | 0.00 | 0.00 | 12 | 1022.4 |
| 20260510013723 | 72 | 301 | 6.1 | 14.8 | 0.00 | 0.00 | 0.00 | 12 | 1022.4 |
| 20260510013217 | 72 | 289 | 8.7 | 19.1 | 0.00 | 0.00 | 0.00 | 11 | 1022.1 |
| 20260510012711 | 73 | 203 | 10.4 | 19.1 | 0.00 | 0.00 | 0.00 | 11 | 1022.1 |
| 20260510012424 | 73 | 273 | 7.8 | 19.1 | 0.00 | 0.00 | 0.00 | 12 | 1022.3 |
| 20260510011923 | 73 | 290 | 6.1 | 17.4 | 0.00 | 0.00 | 0.00 | 12 | 1022.3 |
| 20260510011153 | 73 | 335 | 8.7 | 17.4 | 0.00 | 0.00 | 0.00 | 12 | 1022.0 |
| 20260510010647 | 73 | 317 | 7.0 | 14.8 | 0.00 | 0.00 | 0.00 | 12 | 1022.1 |
| 20260510010141 | 73 | 295 | 7.0 | 14.8 | 0.00 | 0.00 | 0.00 | 12 | 1022.0 |
| 20260510005854 | 73 | 355 | 7.8 | 16.5 | 0.00 | 0.00 | 0.00 | 12 | 1022.0 |
| 20260510005129 | 73 | 288 | 8.7 | 17.4 | 0.00 | 0.00 | 0.00 | 12 | 1022.0 |
| 20260510004623 | 73 | 298 | 7.8 | 17.4 | 0.00 | 0.00 | 0.00 | 11 | 1022.0 |
| 20260510004118 | 73 | 301 | 7.8 | 15.6 | 0.00 | 0.00 | 0.00 | 12 | 1022.0 |
| 20260510003611 | 74 | 324 | 7.0 | 15.6 | 0.00 | 0.00 | 0.00 | 11 | 1022.0 |
| 20260510003105 | 74 | 266 | 7.8 | 16.5 | 0.00 | 0.00 | 0.00 | 11 | 1022.0 |
| 20260510002559 | 74 | 0 | 7.8 | 16.5 | 0.00 | 0.00 | 0.00 | 11 | 1021.9 |
| 20260510002053 | 74 | 313 | 8.7 | 19.1 | 0.00 | 0.00 | 0.00 | 12 | 1022.0 |
| 20260510001547 | 74 | 304 | 9.6 | 19.1 | 0.00 | 0.00 | 0.00 | 11 | 1021.9 |
| 20260510001302 | 74 | 350 | 7.8 | 17.4 | 0.00 | 0.00 | 0.00 | 11 | 1021.8 |
| 20260510000535 | 74 | 258 | 7.8 | 17.4 | 0.00 | 0.00 | 0.00 | 12 | 1021.8 |
| 20260510000030 | 74 | 319 | 8.7 | 15.6 | 0.00 | 0.00 | 0.00 | 11 | 1021.9 |
| 20260509235523 | 74 | 251 | 7.8 | 14.8 | 0.00 | 0.00 | 0.00 | 11 | 1021.8 |
| 20260509235017 | 75 | 247 | 6.1 | 14.8 | 0.00 | 0.00 | 0.00 | 11 | 1021.8 |
| 20260509234512 | 75 | 285 | 7.8 | 16.5 | 0.00 | 0.00 | 0.00 | 11 | 1021.8 |
| 20260509234006 | 76 | 331 | 9.6 | 19.1 | 0.00 | 0.00 | 0.00 | 11 | 1021.8 |
| 20260509233727 | 76 | 0 | 8.7 | 19.1 | 0.00 | 0.00 | 0.00 | 11 | 1021.6 |
| 20260509232953 | 77 | 287 | 7.0 | 15.6 | 0.00 | 0.00 | 0.00 | 10 | 1021.6 |
| 20260509232708 | 77 | 284 | 7.8 | 18.2 | 0.00 | 0.00 | 0.00 | 10 | 1021.8 |
| 20260509231941 | 78 | 325 | 9.6 | 18.2 | 0.00 | 0.00 | 0.00 | 10 | 1021.9 |
| 20260509231435 | 78 | 279 | 9.6 | 22.6 | 0.00 | 0.00 | 0.00 | 10 | 1021.8 |
| 20260509230930 | 77 | 238 | 10.4 | 22.6 | 0.00 | 0.00 | 0.00 | 11 | 1021.6 |
| 20260509230647 | 77 | 282 | 10.4 | 22.6 | 0.00 | 0.00 | 0.00 | 10 | 1021.6 |
| 20260509230150 | 77 | 244 | 9.6 | 18.2 | 0.00 | 0.00 | 0.00 | 10 | 1021.8 |
| 20260509225427 | 77 | 248 | 9.6 | 20.9 | 0.00 | 0.00 | 0.00 | 10 | 1021.8 |
| 20260509224926 | 77 | 250 | 9.6 | 20.9 | 0.00 | 0.00 | 0.00 | 10 | 1021.6 |
| 20260509224424 | 78 | 295 | 7.8 | 15.6 | 0.00 | 0.00 | 0.00 | 10 | 1021.8 |
| 20260509224142 | 78 | 321 | 7.8 | 15.6 | 0.00 | 0.00 | 0.00 | 10 | 1021.9 |
| 20260509223424 | 78 | 269 | 7.8 | 15.6 | 0.00 | 0.00 | 0.00 | 10 | 1021.9 |
| 20260509222923 | 77 | 238 | 7.8 | 14.8 | 0.00 | 0.00 | 0.00 | 10 | 1022.0 |
| 20260509222646 | 77 | 213 | 7.8 | 20.0 | 0.00 | 0.00 | 0.00 | 10 | 1022.0 |
| 20260509221924 | 77 | 236 | 9.6 | 20.0 | 0.00 | 0.00 | 0.00 | 11 | 1022.1 |
| 20260509221424 | 77 | 248 | 11.3 | 20.9 | 0.00 | 0.00 | 0.00 | 10 | 1022.0 |
| 20260509221413 | 78 | 264 | 10.4 | 20.9 | 0.00 | 0.00 | 0.00 | 10 | 1021.9 |
| 20260509220423 | 78 | 234 | 8.7 | 24.3 | 0.00 | 0.00 | 0.00 | 11 | 1022.0 |
| 20260509220126 | 77 | 143 | 7.8 | 20.9 | 0.00 | 0.00 | 0.00 | 12 | 1022.0 |
| 20260509220013 | 78 | 261 | 7.8 | 24.3 | 0.00 | 0.00 | 0.00 | 10 | 1021.9 |
| 20260509214920 | 76 | 260 | 7.8 | 20.9 | 0.00 | 0.00 | 0.00 | 12 | 1022.1 |
| 20260509214414 | 75 | 261 | 5.2 | 14.8 | 0.00 | 0.00 | 0.00 | 13 | 1022.3 |
| 20260509213907 | 74 | 278 | 5.2 | 13.0 | 0.00 | 0.00 | 0.00 | 14 | 1022.1 |
| 20260509213402 | 74 | 293 | 6.1 | 13.0 | 0.00 | 0.00 | 0.00 | 13 | 1022.5 |
| 20260509212858 | 74 | 317 | 7.0 | 14.8 | 0.00 | 0.00 | 0.00 | 14 | 1022.5 |
| 20260509212357 | 74 | 267 | 7.8 | 14.8 | 0.00 | 0.00 | 0.00 | 13 | 1022.6 |
| 20260509211858 | 74 | 325 | 7.8 | 16.5 | 0.00 | 0.00 | 0.00 | 13 | 1022.8 |
| 20260509211358 | 74 | 287 | 7.8 | 16.5 | 0.00 | 0.00 | 0.00 | 13 | 1022.9 |
| 20260509210858 | 74 | 296 | 7.0 | 14.8 | 0.00 | 0.00 | 0.00 | 14 | 1022.8 |
| 20260509210357 | 74 | 196 | 6.1 | 13.0 | 0.00 | 0.00 | 0.00 | 14 | 1022.9 |
| 20260509205858 | 74 | 316 | 6.1 | 11.3 | 0.00 | 0.00 | 0.00 | 14 | 1022.9 |
| 20260509205355 | 74 | 300 | 7.0 | 15.6 | 0.00 | 0.00 | 0.00 | 14 | 1022.9 |
| 20260509204856 | 74 | 336 | 6.1 | 19.1 | 0.00 | 0.00 | 0.00 | 14 | 1023.0 |
| 20260509204356 | 74 | 296 | 6.1 | 19.1 | 0.00 | 0.00 | 0.00 | 14 | 1023.0 |
| 20260509204120 | 74 | 299 | 5.2 | 15.6 | 0.00 | 0.00 | 0.00 | 15 | 1023.2 |
| 20260509203357 | 74 | 340 | 7.0 | 15.6 | 0.00 | 0.00 | 0.00 | 14 | 1023.2 |
| 20260509202855 | 74 | 302 | 7.8 | 19.1 | 0.00 | 0.00 | 0.00 | 14 | 1023.4 |
| 20260509202351 | 74 | 13 | 6.1 | 19.1 | 0.00 | 0.00 | 0.00 | 14 | 1023.4 |
| 20260509201852 | 74 | 327 | 4.3 | 9.6 | 0.00 | 0.00 | 0.00 | 14 | 1023.4 |
| 20260509201354 | 74 | 261 | 4.3 | 10.4 | 0.00 | 0.00 | 0.00 | 14 | 1023.4 |
| 20260509201113 | 74 | 295 | 5.2 | 12.2 | 0.00 | 0.00 | 0.00 | 14 | 1023.5 |
| 20260509200352 | 74 | 306 | 7.0 | 12.2 | 0.00 | 0.00 | 0.00 | 14 | 1023.5 |
| 20260509195852 | 74 | 255 | 7.8 | 17.4 | 0.00 | 0.00 | 0.00 | 14 | 1023.5 |
| 20260509195352 | 74 | 346 | 6.1 | 17.4 | 0.00 | 0.00 | 0.00 | 14 | 1023.7 |
| 20260509194852 | 73 | 256 | 5.2 | 15.6 | 0.00 | 0.00 | 0.00 | 14 | 1023.8 |
| 20260509194353 | 74 | 279 | 4.3 | 15.6 | 0.00 | 0.00 | 0.00 | 14 | 1023.9 |
| 20260509193851 | 74 | 263 | 1.7 | 11.3 | 0.00 | 0.00 | 0.00 | 15 | 1024.0 |
| 20260509193352 | 74 | 138 | 4.3 | 13.9 | 0.00 | 0.00 | 0.00 | 15 | 1023.9 |
| 20260509192851 | 74 | 295 | 7.0 | 14.8 | 0.00 | 0.00 | 0.00 | 15 | 1024.0 |
| 20260509192613 | 74 | 298 | 5.2 | 14.8 | 0.00 | 0.00 | 0.00 | 15 | 1024.0 |
| 20260509191852 | 74 | 304 | 4.3 | 10.4 | 0.00 | 0.00 | 0.00 | 16 | 1023.9 |
| 20260509191351 | 74 | 250 | 4.3 | 10.4 | 0.00 | 0.00 | 0.00 | 15 | 1024.0 |
| 20260509190852 | 75 | 296 | 3.5 | 10.4 | 0.00 | 0.00 | 0.00 | 15 | 1024.2 |
| 20260509190353 | 75 | 323 | 3.5 | 11.3 | 0.00 | 0.00 | 0.00 | 15 | 1024.0 |
| 20260509185851 | 75 | 15 | 2.6 | 11.3 | 0.00 | 0.00 | 0.00 | 15 | 1024.3 |
| 20260509185351 | 75 | 342 | 2.6 | 8.7 | 0.00 | 0.00 | 0.00 | 15 | 1024.3 |
| 20260509184852 | 75 | 35 | 5.2 | 11.3 | 0.00 | 0.00 | 0.00 | 15 | 1024.4 |
| 20260509184352 | 75 | 246 | 6.1 | 13.0 | 0.00 | 0.00 | 0.00 | 15 | 1024.5 |
| 20260509183852 | 76 | 262 | 7.0 | 19.1 | 0.00 | 0.00 | 0.00 | 14 | 1024.7 |
| 20260509183350 | 75 | 171 | 7.0 | 19.1 | 0.00 | 0.00 | 0.00 | 14 | 1024.4 |
| 20260509182848 | 75 | 9 | 7.8 | 20.0 | 0.00 | 0.00 | 0.00 | 15 | 1024.5 |
| 20260509182347 | 75 | 311 | 8.7 | 20.0 | 0.00 | 0.00 | 0.00 | 15 | 1024.7 |
| 20260509182113 | 75 | 348 | 6.1 | 16.5 | 0.00 | 0.00 | 0.00 | 14 | 1024.8 |
| 20260509181345 | 74 | 285 | 4.3 | 12.2 | 0.00 | 0.00 | 0.00 | 15 | 1024.7 |
| 20260509180843 | 74 | 317 | 6.1 | 15.6 | 0.00 | 0.00 | 0.00 | 15 | 1024.9 |
| 20260509180342 | 74 | 157 | 7.0 | 20.0 | 0.00 | 0.00 | 0.00 | 15 | 1025.0 |
| 20260509175841 | 74 | 292 | 7.8 | 20.0 | 0.00 | 0.00 | 0.00 | 15 | 1024.9 |
| 20260509175340 | 74 | 304 | 8.7 | 20.0 | 0.00 | 0.00 | 0.00 | 15 | 1025.0 |
| 20260509174840 | 73 | 336 | 7.8 | 20.0 | 0.00 | 0.00 | 0.00 | 15 | 1025.0 |
| 20260509174338 | 73 | 23 | 7.8 | 19.1 | 0.00 | 0.00 | 0.00 | 15 | 1025.2 |
| 20260509173838 | 72 | 351 | 8.7 | 19.1 | 0.00 | 0.00 | 0.00 | 15 | 1025.3 |
| 20260509173338 | 72 | 301 | 7.8 | 16.5 | 0.00 | 0.00 | 0.00 | 16 | 1025.2 |
| 20260509172837 | 72 | 291 | 8.7 | 17.4 | 0.00 | 0.00 | 0.00 | 16 | 1025.2 |
| 20260509172337 | 72 | 336 | 8.7 | 17.4 | 0.00 | 0.00 | 0.00 | 15 | 1025.3 |
| 20260509171835 | 72 | 31 | 7.8 | 15.6 | 0.00 | 0.00 | 0.00 | 16 | 1025.2 |
| 20260509171336 | 71 | 304 | 8.7 | 16.5 | 0.00 | 0.00 | 0.00 | 16 | 1025.2 |
| 20260509170835 | 71 | 288 | 8.7 | 17.4 | 0.00 | 0.00 | 0.00 | 16 | 1025.3 |
| 20260509170553 | 71 | 329 | 10.4 | 17.4 | 0.00 | 0.00 | 0.00 | 15 | 1025.3 |
| 20260509165835 | 71 | 9 | 9.6 | 20.0 | 0.00 | 0.00 | 0.00 | 15 | 1025.2 |
| 20260509165335 | 71 | 293 | 8.7 | 20.0 | 0.00 | 0.00 | 0.00 | 16 | 1025.3 |
| 20260509164835 | 70 | 223 | 7.0 | 15.6 | 0.00 | 0.00 | 0.00 | 16 | 1025.2 |
| 20260509164557 | 70 | 5 | 7.0 | 13.9 | 0.00 | 0.00 | 0.00 | 17 | 1025.2 |
| 20260509163836 | 69 | 334 | 7.0 | 14.8 | 0.00 | 0.00 | 0.00 | 18 | 1025.3 |
| 20260509163600 | 69 | 331 | 6.1 | 14.8 | 0.00 | 0.00 | 0.00 | 19 | 1025.3 |
| 20260509162835 | 69 | 285 | 6.1 | 12.2 | 0.00 | 0.00 | 0.00 | 20 | 1025.3 |
| 20260509162328 | 68 | 355 | 5.2 | 12.2 | 0.00 | 0.00 | 0.00 | 19 | 1025.2 |
| 20260509162045 | 68 | 327 | 5.2 | 10.4 | 0.00 | 0.00 | 0.00 | 19 | 1025.2 |
| 20260509161550 | 67 | 12 | 5.2 | 12.2 | 0.00 | 0.00 | 0.00 | 21 | 1025.2 |
| 20260509160809 | 67 | 320 | 4.3 | 12.2 | 0.00 | 0.00 | 0.00 | 22 | 1025.3 |
| 20260509160303 | 66 | 318 | 4.3 | 10.4 | 0.00 | 0.00 | 0.00 | 23 | 1025.3 |
| 20260509155757 | 66 | 10 | 5.2 | 10.4 | 0.00 | 0.00 | 0.00 | 23 | 1025.3 |
| 20260509155514 | 65 | 318 | 4.3 | 8.7 | 0.00 | 0.00 | 0.00 | 24 | 1025.4 |
| 20260509154745 | 65 | 306 | 2.6 | 8.7 | 0.00 | 0.00 | 0.00 | 24 | 1025.3 |
| 20260509154238 | 64 | 308 | 2.6 | 8.7 | 0.00 | 0.00 | 0.00 | 25 | 1025.4 |
| 20260509153950 | 63 | 281 | 3.5 | 7.8 | 0.00 | 0.00 | 0.00 | 25 | 1025.4 |
| 20260509153227 | 63 | 255 | 2.6 | 7.8 | 0.00 | 0.00 | 0.00 | 26 | 1025.4 |
| 20260509152721 | 62 | 259 | 2.6 | 7.0 | 0.00 | 0.00 | 0.00 | 27 | 1025.4 |
| 20260509152215 | 61 | 303 | 1.7 | 7.0 | 0.00 | 0.00 | 0.00 | 28 | 1025.4 |
| 20260509151709 | 60 | 239 | 0.9 | 4.3 | 0.00 | 0.00 | 0.00 | 28 | 1025.4 |
| 20260509151202 | 60 | 242 | 1.7 | 4.3 | 0.00 | 0.00 | 0.00 | 28 | 1025.4 |
| 20260509150656 | 60 | 310 | 1.7 | 5.2 | 0.00 | 0.00 | 0.00 | 29 | 1025.3 |
| 20260509150414 | 59 | 252 | 0.9 | 5.2 | 0.00 | 0.00 | 0.00 | 29 | 1025.3 |
| 20260509145645 | 58 | 355 | 1.7 | 3.5 | 0.00 | 0.00 | 0.00 | 29 | 1025.4 |
| 20260509145403 | 58 | 275 | 1.7 | 4.3 | 0.00 | 0.00 | 0.00 | 29 | 1025.3 |
| 20260509144851 | 57 | 335 | 1.7 | 4.3 | 0.00 | 0.00 | 0.00 | 30 | 1025.3 |
| 20260509144127 | 57 | 262 | 2.6 | 7.0 | 0.00 | 0.00 | 0.00 | 30 | 1025.3 |
| 20260509143621 | 56 | 295 | 2.6 | 7.0 | 0.00 | 0.00 | 0.00 | 31 | 1025.4 |
| 20260509143121 | 56 | 234 | 1.7 | 6.1 | 0.00 | 0.00 | 0.00 | 32 | 1025.4 |
| 20260509142621 | 55 | 227 | 0.9 | 4.3 | 0.00 | 0.00 | 0.00 | 32 | 1025.4 |
| 20260509142121 | 54 | 255 | 1.7 | 3.5 | 0.00 | 0.00 | 0.00 | 32 | 1025.4 |
| 20260509141621 | 54 | 234 | 0.9 | 3.5 | 0.00 | 0.00 | 0.00 | 33 | 1025.3 |
| 20260509141121 | 53 | 134 | 0.0 | 1.7 | 0.00 | 0.00 | 0.00 | 33 | 1025.2 |
| 20260509140621 | 53 | 127 | 0.0 | 0.9 | 0.00 | 0.00 | 0.00 | 34 | 1025.2 |
| 20260509140121 | 53 | 93 | 0.0 | 0.0 | 0.00 | 0.00 | 0.00 | 36 | 1025.2 |
| 20260509135621 | 52 | 93 | 0.9 | 2.6 | 0.00 | 0.00 | 0.00 | 37 | 1025.2 |
| 20260509135121 | 52 | 93 | 1.7 | 2.6 | 0.00 | 0.00 | 0.00 | 37 | 1025.3 |
| 20260509134846 | 52 | 96 | 1.7 | 3.5 | 0.00 | 0.00 | 0.00 | 37 | 1025.2 |
| 20260509134119 | 51 | 96 | 1.7 | 3.5 | 0.00 | 0.00 | 0.00 | 37 | 1025.2 |
| 20260509133619 | 51 | 92 | 2.6 | 6.1 | 0.00 | 0.00 | 0.00 | 37 | 1025.2 |
| 20260509133119 | 51 | 80 | 2.6 | 6.1 | 0.00 | 0.00 | 0.00 | 37 | 1025.0 |
| 20260509132840 | 51 | 90 | 3.5 | 6.1 | 0.00 | 0.00 | 0.00 | 37 | 1025.0 |
| 20260509132119 | 51 | 105 | 3.5 | 6.1 | 0.00 | 0.00 | 0.00 | 37 | 1025.0 |
| 20260509131619 | 50 | 96 | 3.5 | 6.1 | 0.00 | 0.00 | 0.00 | 37 | 1025.0 |
| 20260509131339 | 50 | 93 | 3.5 | 6.1 | 0.00 | 0.00 | 0.00 | 37 | 1025.0 |
| 20260509130831 | 50 | 80 | 4.3 | 6.1 | 0.00 | 0.00 | 0.00 | 36 | 1024.9 |
| 20260509130106 | 50 | 90 | 3.5 | 6.1 | 0.00 | 0.00 | 0.00 | 36 | 1024.9 |
| 20260509125601 | 50 | 98 | 3.5 | 6.1 | 0.00 | 0.00 | 0.00 | 36 | 1024.9 |
| 20260509125055 | 50 | 98 | 3.5 | 6.1 | 0.00 | 0.00 | 0.00 | 36 | 1024.9 |
| 20260509124817 | 50 | 92 | 3.5 | 7.0 | 0.00 | 0.00 | 0.00 | 36 | 1024.8 |
| 20260509124043 | 50 | 91 | 3.5 | 7.0 | 0.00 | 0.00 | 0.00 | 36 | 1024.7 |
| 20260509123536 | 51 | 105 | 4.3 | 7.8 | 0.00 | 0.00 | 0.00 | 35 | 1024.5 |
| 20260509123031 | 51 | 62 | 4.3 | 7.8 | 0.00 | 0.00 | 0.00 | 35 | 1024.4 |
| 20260509122524 | 51 | 99 | 3.5 | 7.0 | 0.00 | 0.00 | 0.00 | 35 | 1024.4 |
| 20260509122018 | 51 | 86 | 3.5 | 6.1 | 0.00 | 0.00 | 0.00 | 35 | 1024.4 |
| 20260509121512 | 51 | 98 | 3.5 | 6.1 | 0.00 | 0.00 | 0.00 | 35 | 1024.3 |
| 20260509121007 | 51 | 80 | 3.5 | 7.0 | 0.00 | 0.00 | 0.00 | 35 | 1024.3 |
| 20260509120501 | 51 | 103 | 2.6 | 7.0 | 0.00 | 0.00 | 0.00 | 34 | 1024.2 |
| 20260509115954 | 51 | 88 | 1.7 | 6.1 | 0.00 | 0.00 | 0.00 | 34 | 1024.0 |
| 20260509115449 | 51 | 126 | 3.5 | 7.8 | 0.00 | 0.00 | 0.00 | 34 | 1024.0 |
| 20260509114943 | 51 | 104 | 4.3 | 7.8 | 0.00 | 0.00 | 0.00 | 34 | 1024.0 |
| 20260509114437 | 52 | 103 | 5.2 | 7.8 | 0.00 | 0.00 | 0.00 | 34 | 1023.9 |
| 20260509113933 | 52 | 113 | 5.2 | 8.7 | 0.00 | 0.00 | 0.00 | 34 | 1023.9 |
| 20260509113433 | 52 | 109 | 6.1 | 8.7 | 0.00 | 0.00 | 0.00 | 34 | 1023.9 |
| 20260509113201 | 52 | 113 | 6.1 | 10.4 | 0.00 | 0.00 | 0.00 | 34 | 1023.8 |
| 20260509112429 | 51 | 107 | 6.1 | 10.4 | 0.00 | 0.00 | 0.00 | 34 | 1023.8 |
| 20260509111929 | 51 | 114 | 6.1 | 10.4 | 0.00 | 0.00 | 0.00 | 34 | 1023.8 |
| 20260509111429 | 51 | 97 | 6.1 | 10.4 | 0.00 | 0.00 | 0.00 | 34 | 1023.9 |
| 20260509110929 | 51 | 73 | 6.1 | 8.7 | 0.00 | 0.00 | 0.00 | 34 | 1023.9 |
| 20260509110429 | 51 | 117 | 5.2 | 8.7 | 0.00 | 0.00 | 0.00 | 35 | 1023.9 |
| 20260509105929 | 51 | 127 | 5.2 | 8.7 | 0.00 | 0.00 | 0.00 | 35 | 1023.9 |
| 20260509105429 | 51 | 112 | 5.2 | 7.8 | 0.00 | 0.00 | 0.00 | 35 | 1023.8 |
| 20260509104929 | 51 | 102 | 5.2 | 7.8 | 0.00 | 0.00 | 0.00 | 35 | 1023.9 |
| 20260509104429 | 51 | 98 | 5.2 | 7.8 | 0.00 | 0.00 | 0.00 | 34 | 1023.8 |
| 20260509104147 | 51 | 117 | 5.2 | 7.8 | 0.00 | 0.00 | 0.00 | 34 | 1023.8 |
| 20260509103425 | 51 | 90 | 5.2 | 7.8 | 0.00 | 0.00 | 0.00 | 34 | 1023.8 |
| 20260509102924 | 51 | 82 | 4.3 | 7.0 | 0.00 | 0.00 | 0.00 | 34 | 1023.8 |
| 20260509102646 | 52 | 96 | 4.3 | 7.0 | 0.00 | 0.00 | 0.00 | 34 | 1023.8 |
| 20260509101925 | 52 | 117 | 4.3 | 7.0 | 0.00 | 0.00 | 0.00 | 34 | 1023.8 |
| 20260509101425 | 52 | 85 | 4.3 | 7.0 | 0.00 | 0.00 | 0.00 | 34 | 1023.8 |
| 20260509100926 | 52 | 94 | 5.2 | 7.8 | 0.00 | 0.00 | 0.00 | 33 | 1023.8 |
| 20260509100426 | 53 | 90 | 5.2 | 7.8 | 0.00 | 0.00 | 0.00 | 33 | 1023.8 |
| 20260509095926 | 53 | 114 | 5.2 | 7.8 | 0.00 | 0.00 | 0.00 | 33 | 1023.8 |
| 20260509095425 | 53 | 112 | 5.2 | 7.8 | 0.00 | 0.00 | 0.00 | 32 | 1023.8 |
| 20260509094924 | 53 | 73 | 5.2 | 7.0 | 0.00 | 0.00 | 0.00 | 32 | 1023.8 |
| 20260509094425 | 53 | 97 | 5.2 | 7.8 | 0.00 | 0.00 | 0.00 | 32 | 1023.8 |
| 20260509093925 | 54 | 110 | 6.1 | 7.8 | 0.00 | 0.00 | 0.00 | 31 | 1023.8 |
| 20260509093425 | 54 | 102 | 6.1 | 7.8 | 0.00 | 0.00 | 0.00 | 31 | 1023.8 |
| 20260509092924 | 54 | 82 | 5.2 | 7.8 | 0.00 | 0.00 | 0.00 | 31 | 1023.8 |
| 20260509092424 | 54 | 90 | 5.2 | 7.8 | 0.00 | 0.00 | 0.00 | 31 | 1023.8 |
| 20260509091925 | 54 | 92 | 5.2 | 7.8 | 0.00 | 0.00 | 0.00 | 31 | 1023.8 |
| 20260509091424 | 54 | 81 | 5.2 | 7.8 | 0.00 | 0.00 | 0.00 | 31 | 1023.8 |
| 20260509090919 | 54 | 83 | 5.2 | 7.0 | 0.00 | 0.00 | 0.00 | 31 | 1023.8 |
| 20260509090413 | 54 | 86 | 5.2 | 7.8 | 0.00 | 0.00 | 0.00 | 31 | 1023.7 |
| 20260509090130 | 54 | 76 | 6.1 | 8.7 | 0.00 | 0.00 | 0.00 | 31 | 1023.8 |
| 20260509085635 | 54 | 92 | 5.2 | 8.7 | 0.00 | 0.00 | 0.00 | 31 | 1023.7 |
| 20260509084913 | 54 | 119 | 5.2 | 7.8 | 0.00 | 0.00 | 0.00 | 31 | 1023.5 |
| 20260509084637 | 54 | 105 | 4.3 | 7.8 | 0.00 | 0.00 | 0.00 | 31 | 1023.7 |
| 20260509083912 | 54 | 88 | 3.5 | 7.0 | 0.00 | 0.00 | 0.00 | 31 | 1023.7 |
| 20260509083412 | 55 | 86 | 4.3 | 7.0 | 0.00 | 0.00 | 0.00 | 30 | 1023.7 |
| 20260509082912 | 55 | 98 | 3.5 | 7.0 | 0.00 | 0.00 | 0.00 | 30 | 1023.8 |
| 20260509082638 | 55 | 78 | 2.6 | 5.2 | 0.00 | 0.00 | 0.00 | 30 | 1023.7 |
| 20260509081911 | 55 | 86 | 2.6 | 5.2 | 0.00 | 0.00 | 0.00 | 30 | 1023.7 |
| 20260509081411 | 55 | 89 | 3.5 | 6.1 | 0.00 | 0.00 | 0.00 | 30 | 1023.5 |
| 20260509080910 | 55 | 74 | 3.5 | 7.8 | 0.00 | 0.00 | 0.00 | 30 | 1023.5 |
| 20260509080411 | 55 | 82 | 3.5 | 7.8 | 0.00 | 0.00 | 0.00 | 30 | 1023.7 |
| 20260509080127 | 55 | 66 | 4.3 | 7.0 | 0.00 | 0.00 | 0.00 | 30 | 1023.7 |
| 20260509075633 | 55 | 73 | 5.2 | 7.8 | 0.00 | 0.00 | 0.00 | 30 | 1023.7 |
| 20260509074911 | 55 | 62 | 6.1 | 7.8 | 0.00 | 0.00 | 0.00 | 30 | 1023.7 |
| 20260509074411 | 55 | 92 | 5.2 | 8.7 | 0.00 | 0.00 | 0.00 | 30 | 1023.5 |
| 20260509073906 | 55 | 91 | 5.2 | 8.7 | 0.00 | 0.00 | 0.00 | 30 | 1023.7 |
| 20260509073359 | 55 | 103 | 5.2 | 7.8 | 0.00 | 0.00 | 0.00 | 30 | 1023.7 |
| 20260509072853 | 55 | 82 | 5.2 | 7.8 | 0.00 | 0.00 | 0.00 | 30 | 1023.8 |
| 20260509072347 | 55 | 92 | 5.2 | 7.8 | 0.00 | 0.00 | 0.00 | 30 | 1023.8 |
| 20260509072102 | 55 | 78 | 5.2 | 7.8 | 0.00 | 0.00 | 0.00 | 30 | 1023.8 |
| 20260509071335 | 55 | 100 | 5.2 | 7.0 | 0.00 | 0.00 | 0.00 | 30 | 1023.9 |
| 20260509070829 | 55 | 98 | 5.2 | 7.8 | 0.00 | 0.00 | 0.00 | 30 | 1023.8 |
| 20260509070323 | 55 | 86 | 6.1 | 8.7 | 0.00 | 0.00 | 0.00 | 30 | 1023.8 |
| 20260509065817 | 55 | 101 | 6.1 | 8.7 | 0.00 | 0.00 | 0.00 | 30 | 1023.9 |
| 20260509065311 | 55 | 101 | 6.1 | 7.8 | 0.00 | 0.00 | 0.00 | 30 | 1024.0 |
| 20260509064806 | 55 | 80 | 5.2 | 7.8 | 0.00 | 0.00 | 0.00 | 30 | 1024.0 |
| 20260509064259 | 55 | 98 | 5.2 | 8.7 | 0.00 | 0.00 | 0.00 | 30 | 1024.0 |
| 20260509063759 | 55 | 105 | 6.1 | 8.7 | 0.00 | 0.00 | 0.00 | 30 | 1024.0 |
| 20260509063258 | 55 | 67 | 6.1 | 8.7 | 0.00 | 0.00 | 0.00 | 30 | 1024.0 |
| 20260509062759 | 55 | 90 | 6.1 | 8.7 | 0.00 | 0.00 | 0.00 | 30 | 1024.0 |
| 20260509062258 | 55 | 79 | 6.1 | 8.7 | 0.00 | 0.00 | 0.00 | 30 | 1024.2 |
| 20260509061759 | 55 | 107 | 5.2 | 7.8 | 0.00 | 0.00 | 0.00 | 29 | 1024.0 |
| 20260509061257 | 55 | 94 | 5.2 | 8.7 | 0.00 | 0.00 | 0.00 | 29 | 1024.0 |
| 20260509060758 | 55 | 113 | 5.2 | 8.7 | 0.00 | 0.00 | 0.00 | 29 | 1024.0 |
| 20260509060258 | 55 | 103 | 5.2 | 7.8 | 0.00 | 0.00 | 0.00 | 29 | 1024.2 |
| 20260509055757 | 56 | 107 | 5.2 | 8.7 | 0.00 | 0.00 | 0.00 | 29 | 1024.2 |
| 20260509055257 | 56 | 93 | 6.1 | 8.7 | 0.00 | 0.00 | 0.00 | 28 | 1024.2 |
| 20260509054757 | 56 | 92 | 6.1 | 8.7 | 0.00 | 0.00 | 0.00 | 28 | 1024.2 |
| 20260509054257 | 56 | 98 | 6.1 | 8.7 | 0.00 | 0.00 | 0.00 | 28 | 1024.2 |
| 20260509053757 | 56 | 106 | 5.2 | 7.8 | 0.00 | 0.00 | 0.00 | 28 | 1024.2 |
| 20260509053514 | 56 | 77 | 4.3 | 7.0 | 0.00 | 0.00 | 0.00 | 27 | 1024.3 |
| 20260509053012 | 56 | 78 | 5.2 | 7.0 | 0.00 | 0.00 | 0.00 | 28 | 1024.2 |
| 20260509052253 | 56 | 104 | 5.2 | 7.8 | 0.00 | 0.00 | 0.00 | 27 | 1024.3 |
| 20260509051752 | 56 | 80 | 6.1 | 8.7 | 0.00 | 0.00 | 0.00 | 27 | 1024.3 |
| 20260509051734 | 57 | 98 | 6.1 | 8.7 | 0.00 | 0.00 | 0.00 | 27 | 1024.3 |
| 20260509050754 | 57 | 98 | 6.1 | 7.8 | 0.00 | 0.00 | 0.00 | 26 | 1024.3 |
| 20260509050254 | 57 | 101 | 5.2 | 7.8 | 0.00 | 0.00 | 0.00 | 26 | 1024.4 |
| 20260509045752 | 57 | 101 | 5.2 | 9.6 | 0.00 | 0.00 | 0.00 | 26 | 1024.4 |
| 20260509045253 | 57 | 76 | 6.1 | 9.6 | 0.00 | 0.00 | 0.00 | 26 | 1024.4 |
| 20260509044752 | 58 | 76 | 5.2 | 8.7 | 0.00 | 0.00 | 0.00 | 25 | 1024.4 |
| 20260509044252 | 58 | 98 | 5.2 | 8.7 | 0.00 | 0.00 | 0.00 | 25 | 1024.4 |
| 20260509043753 | 58 | 109 | 6.1 | 10.4 | 0.00 | 0.00 | 0.00 | 25 | 1024.4 |
| 20260509043252 | 58 | 98 | 6.1 | 10.4 | 0.00 | 0.00 | 0.00 | 25 | 1024.4 |
| 20260509043016 | 59 | 107 | 5.2 | 7.8 | 0.00 | 0.00 | 0.00 | 25 | 1024.5 |
| 20260509042253 | 59 | 79 | 3.5 | 7.8 | 0.00 | 0.00 | 0.00 | 24 | 1024.7 |
| 20260509041753 | 59 | 96 | 3.5 | 7.8 | 0.00 | 0.00 | 0.00 | 23 | 1024.7 |
| 20260509041252 | 60 | 64 | 3.5 | 7.8 | 0.00 | 0.00 | 0.00 | 23 | 1024.5 |
| 20260509040751 | 60 | 95 | 2.6 | 7.0 | 0.00 | 0.00 | 0.00 | 23 | 1024.5 |
| 20260509040251 | 60 | 89 | 1.7 | 6.1 | 0.00 | 0.00 | 0.00 | 22 | 1024.4 |
| 20260509035750 | 60 | 98 | 1.7 | 3.5 | 0.00 | 0.00 | 0.00 | 22 | 1024.4 |
| 20260509035517 | 61 | 97 | 2.6 | 5.2 | 0.00 | 0.00 | 0.00 | 21 | 1024.4 |
| 20260509034747 | 61 | 90 | 2.6 | 6.1 | 0.00 | 0.00 | 0.00 | 21 | 1024.3 |
| 20260509034244 | 62 | 81 | 2.6 | 6.1 | 0.00 | 0.00 | 0.00 | 21 | 1024.3 |
| 20260509033743 | 62 | 79 | 2.6 | 5.2 | 0.00 | 0.00 | 0.00 | 21 | 1024.2 |
| 20260509033735 | 62 | 96 | 1.7 | 3.5 | 0.00 | 0.00 | 0.00 | 21 | 1024.2 |
| 20260509032742 | 63 | 88 | 0.9 | 3.5 | 0.00 | 0.00 | 0.00 | 20 | 1024.0 |
| 20260509032506 | 63 | 178 | 0.9 | 3.5 | 0.00 | 0.00 | 0.00 | 20 | 1024.0 |
| 20260509031742 | 64 | 238 | 1.7 | 3.5 | 0.00 | 0.00 | 0.00 | 19 | 1023.9 |
| 20260509031243 | 64 | 215 | 0.9 | 3.5 | 0.00 | 0.00 | 0.00 | 19 | 1023.8 |